Probability
7 6 8 12 15 13 9 7 7 5 2 1 2 3 2 1 0 1 4 5 4 3 3 2 1 0 0 1 1 1 1 1 1 1 1 1 1 0 0 0 0 0 0
8 9 11 15 16 14 11 8 7 5 2 0 1 2 2 1 1 1 2 4 4 4 4 3 2 1 1 1 1 1 2 2 2 2 1 1 1 1 1 1 1 0 0
10 11 14 17 18 17 13 10 7 5 4 3 2 2 2 2 2 1 2 4 5 6 6 5 4 3 3 3 3 3 3 3 3 3 3 2 2 2 2 2 2 1 1
9 10 15 19 20 17 14 11 8 7 8 7 5 3 3 3 3 3 4 5 7 7 7 6 6 6 6 6 6 4 3 3 3 3 3 3 3 3 3 3 3 3 2
8 9 14 18 19 19 16 14 11 9 9 8 6 5 4 4 3 4 5 7 8 8 7 6 6 7 8 8 6 4 3 4 4 3 3 3 3 3 3 3 3 3 3
9 9 11 14 17 21 22 18 14 11 9 8 6 6 5 4 4 5 6 7 7 8 6 5 5 6 7 6 4 4 4 5 5 4 4 5 5 5 4 4 4 3 3
10 9 9 10 14 20 23 20 16 13 12 10 8 6 6 6 6 7 7 7 7 8 8 6 5 6 6 4 3 4 5 6 6 6 6 7 8 8 7 6 5 4 3
10 9 7 7 10 16 19 19 16 15 16 14 10 6 6 7 8 8 8 8 9 9 10 8 6 5 5 4 3 5 6 6 6 6 7 8 9 10 10 9 7 5 3
9 8 6 4 7 12 17 19 18 17 17 15 12 9 8 7 8 7 7 8 8 8 8 7 6 4 3 3 5 6 6 6 6 6 6 7 8 8 9 9 7 5 4
8 7 6 4 6 10 16 20 21 20 19 16 15 14 10 7 7 7 5 6 6 7 6 5 4 3 2 3 6 7 7 6 7 7 7 7 6 6 6 6 5 4 4
9 9 8 7 7 10 16 21 23 24 23 20 19 17 13 8 7 7 6 4 5 6 5 4 4 3 3 5 8 8 7 6 7 7 7 6 6 6 6 5 4 4 4
12 12 12 9 9 13 18 23 27 28 26 24 23 21 17 12 10 10 8 6 6 6 5 5 6 7 7 8 10 9 7 6 7 6 5 5 6 6 6 6 6 6 6
19 18 16 12 12 16 22 27 32 32 30 28 26 23 20 16 14 12 11 9 9 8 7 7 9 10 9 9 10 10 7 6 5 4 3 3 5 6 6 6 6 6 6
23 22 19 16 15 19 25 31 35 36 34 33 31 26 23 20 16 13 12 11 11 11 10 11 11 10 9 8 8 8 6 3 2 1 1 1 3 4 4 4 4 4 4
24 24 21 18 18 20 25 31 35 36 35 35 34 31 26 23 20 16 13 11 10 10 12 13 12 11 11 10 8 7 5 2 1 1 1 0 1 2 2 2 1 1 1
32 30 26 22 21 22 25 30 33 34 33 33 35 34 30 28 25 21 17 15 13 12 13 15 15 14 13 11 9 7 5 3 2 2 1 0 0 1 1 1 0 0 0
39 37 33 31 30 28 28 31 33 34 33 33 35 36 34 31 29 25 22 21 20 18 18 18 18 16 12 9 8 6 5 3 3 2 1 0 0 0 0 0 0 0 0
37 38 38 37 37 36 35 35 38 38 37 36 36 38 37 33 30 27 24 25 24 23 21 20 18 15 10 6 4 4 3 3 2 1 0 0 0 0 0 0 0 0 0
34 37 40 41 40 40 41 41 41 42 42 40 37 37 37 35 31 28 25 24 24 23 21 18 16 14 9 4 1 1 2 3 2 1 0 1 1 2 1 1 1 0 0
37 40 43 44 42 43 46 46 45 46 45 42 38 36 34 33 30 28 27 25 23 21 18 15 14 12 8 2 0 0 2 2 2 0 1 2 2 2 2 2 1 1 1
40 43 45 44 43 45 47 47 48 49 46 42 40 38 34 31 28 27 27 25 23 20 17 14 13 12 7 2 0 0 1 2 1 0 1 1 1 1 1 1 1 1 1
43 44 44 43 42 43 43 44 45 44 42 41 40 39 36 32 28 27 27 26 24 20 16 14 12 11 7 3 1 0 1 1 1 1 1 1 0 0 0 0 0 0 1
44 43 42 41 41 40 40 40 39 37 39 42 42 39 35 31 28 26 25 24 23 19 15 12 10 9 6 3 2 1 0 0 1 1 1 0 0 0 0 0 0 0 0
39 39 38 39 38 37 37 37 36 35 37 41 41 37 32 28 25 23 21 20 19 16 12 9 7 6 6 4 3 2 1 1 1 1 1 0 0 0 0 0 0 0 0
31 33 34 34 35 35 33 32 32 32 33 36 35 32 28 26 24 20 15 13 12 11 8 6 5 4 5 4 2 1 1 2 1 0 0 0 0 0 0 0 0 0 0
27 29 31 32 34 34 31 29 28 28 29 32 31 28 25 24 23 18 11 7 7 7 6 4 4 4 4 3 1 0 1 1 1 0 0 0 0 0 0 0 0 0 0
Wind_Speed
8 8 8 8 7 6 5 5 5 4 3 2 2 2 1 1 1 1 2 3 2 3 3 2 2 2 2 2 2 2 2 1 1 2 2 2 2 1 1 1 1 1 2
7 8 7 7 7 7 6 5 5 4 4 3 2 2 2 2 1 1 1 2 3 3 3 3 2 2 2 2 1 2 2 1 1 2 2 1 3 3 2 1 1 1 1
12 10 9 8 8 8 7 6 5 5 4 3 2 2 2 1 1 0 0 1 2 3 3 3 2 2 2 2 2 2 3 2 1 2 3 2 2 1 2 1 1 1 1
11 10 10 9 9 8 7 6 6 5 4 4 4 4 3 2 2 2 2 1 1 2 3 3 3 2 2 2 2 2 2 3 2 1 1 2 3 2 0 1 1 1 1
12 11 12 11 10 9 8 6 6 5 4 4 5 4 3 2 1 1 2 1 1 1 2 3 2 2 2 2 2 2 2 2 2 2 1 1 1 2 2 1 1 1 1
12 11 10 9 8 8 7 7 6 5 5 5 5 5 5 4 3 2 2 1 0 0 1 2 2 2 2 2 2 2 2 2 2 2 1 2 2 2 2 2 1 0 0
11 11 10 10 9 10 9 7 7 6 5 5 5 5 5 5 5 3 3 2 1 1 1 1 1 1 1 2 2 2 1 1 2 2 1 2 2 2 2 3 2 1 0
11 12 13 12 11 11 10 9 8 7 6 6 5 4 4 3 3 3 3 3 2 2 2 2 2 1 1 1 2 1 1 1 1 1 1 1 1 2 3 3 3 2 0
12 12 12 12 12 11 10 10 9 8 7 6 5 4 4 4 4 3 2 2 2 2 2 2 2 1 1 2 2 1 1 1 1 1 1 1 1 1 1 2 4 4 2
9 10 10 11 11 10 9 9 9 9 8 7 6 5 4 4 4 3 3 3 2 2 2 2 2 1 2 2 1 1 1 1 0 0 1 0 1 1 1 2 2 2 3
7 8 9 9 9 9 9 8 8 7 7 7 6 5 4 4 4 4 3 3 2 3 3 2 2 2 2 2 2 1 1 1 0 0 1 1 1 1 1 1 2 2 2
7 8 8 8 8 10 9 9 9 8 8 7 6 6 5 4 5 4 4 3 3 3 3 3 2 2 2 2 2 2 1 2 1 1 1 0 1 1 1 2 2 2 2
6 6 6 7 8 8 9 9 9 9 8 7 7 6 5 5 5 5 4 4 4 3 2 3 3 2 2 2 2 2 2 1 1 1 1 0 1 1 1 2 2 2 2
7 7 7 6 6 6 7 8 8 8 8 8 8 7 6 6 6 5 4 4 4 3 3 3 2 2 2 2 2 2 1 1 1 1 1 1 2 2 2 2 2 3 3
6 7 7 6 6 5 6 7 7 8 8 8 8 8 7 6 6 5 5 4 4 4 3 3 2 1 2 1 1 2 2 2 1 0 0 1 2 2 2 2 3 3 3
5 5 6 6 6 6 6 6 7 8 8 9 8 7 7 6 6 6 5 4 4 3 3 3 2 2 1 2 3 3 2 2 2 1 0 1 1 1 2 4 5 5 5
4 5 6 6 7 7 7 8 8 7 8 8 8 7 7 7 7 7 5 5 5 4 3 3 3 2 2 3 3 3 2 2 2 2 1 1 1 1 1 2 3 3 5
4 4 5 5 4 4 4 5 7 7 7 7 7 7 7 7 6 6 6 5 4 4 4 4 4 3 2 3 3 3 2 2 2 2 2 2 0 0 2 2 2 1 1
3 3 4 4 3 3 4 5 5 6 6 6 6 7 8 8 7 7 6 5 5 4 4 4 4 3 2 3 3 4 2 2 1 1 2 2 2 1 4 3 2 1 1
1 2 2 3 4 3 5 5 5 5 6 6 6 6 6 7 7 7 6 4 5 5 4 3 3 4 3 3 4 4 2 2 1 0 0 2 3 3 4 3 3 2 2
2 2 3 3 4 4 5 5 4 5 6 5 5 5 5 6 6 5 4 4 4 4 4 4 3 3 4 3 4 4 3 3 3 2 1 2 3 3 4 3 3 4 3
2 3 2 2 1 3 4 4 4 4 3 4 4 4 5 5 5 5 4 4 5 5 4 3 2 1 2 3 4 5 4 4 3 3 2 2 4 4 3 2 3 3 2
2 2 2 1 0 1 4 4 4 3 4 5 4 4 3 3 4 4 4 4 4 4 4 3 3 2 1 2 4 5 4 5 3 3 4 4 4 3 2 3 3 2 2
1 1 1 1 1 1 2 3 3 4 5 5 4 4 4 3 3 3 3 3 4 3 3 3 3 3 2 2 2 2 2 3 2 1 2 3 3 2 2 2 2 2 3
1 0 1 2 2 2 2 3 4 5 5 5 4 4 4 4 3 2 2 3 3 4 5 4 4 4 4 5 5 4 3 3 3 2 1 0 0 1 1 1 2 2 2
1 1 1 2 2 2 2 2 3 5 6 5 4 3 3 3 3 3 2 3 1 2 4 5 5 3 4 5 7 6 6 5 5 4 2 2 2 3 3 3 3 2 3
Wind_Direction
174 162 159 155 147 145 144 147 147 160 149 140 140 138 153 164 169 183 171 167 162 157 153 149 150 142 141 158 153 139 122 113 117 88 34 9 17 5 211 178 161 194 204
166 163 163 163 161 161 160 158 161 167 167 170 167 164 159 172 176 181 154 164 161 157 152 148 152 155 140 131 141 136 134 162 136 129 107 15 359 4 5 72 127 142 129
174 170 166 172 169 170 172 170 173 173 177 172 146 125 94 71 72 117 187 190 166 162 156 163 159 164 156 164 180 165 157 173 218 153 143 150 209 310 347 11 85 113 121
175 172 169 174 180 181 175 169 170 173 177 165 153 154 158 174 196 182 183 196 185 171 165 162 165 173 172 173 191 165 167 160 187 222 163 168 163 161 252 338 6 36 94
178 176 176 180 182 180 173 169 166 170 171 165 164 159 164 178 170 149 152 179 208 183 168 163 162 170 178 181 180 163 163 168 176 184 170 142 146 150 156 214 310 9 17
180 175 176 172 173 174 170 167 167 176 176 173 169 167 171 168 152 149 151 164 177 170 170 155 157 169 172 177 182 176 168 174 171 180 172 165 168 180 163 175 199 202 340
177 172 173 172 174 173 173 171 173 181 181 175 175 173 171 166 166 168 171 168 167 193 201 172 174 179 182 180 173 164 174 173 170 189 202 194 197 175 158 151 167 160 188
183 178 179 178 178 176 175 173 179 186 184 179 181 175 167 162 165 170 170 174 179 194 189 166 175 178 168 154 150 153 185 159 174 199 193 192 207 177 160 161 154 144 126
185 182 180 181 178 178 179 179 182 185 186 182 175 172 168 162 166 167 162 165 175 177 168 159 160 168 153 146 143 142 184 169 187 207 193 190 200 175 172 162 161 159 172
182 179 181 181 178 178 180 178 179 185 184 180 177 178 177 170 162 155 163 169 177 168 154 154 158 159 149 136 124 116 136 133 209 184 144 187 204 180 165 166 164 158 159
170 174 178 180 176 173 174 174 173 174 176 176 174 165 164 159 152 154 161 159 152 151 159 161 151 144 138 130 126 133 123 115 83 93 127 165 166 161 163 151 149 148 139
165 168 174 175 174 178 178 175 175 176 179 176 167 167 164 160 159 163 168 156 149 151 154 142 133 136 131 128 134 147 131 133 132 123 105 251 128 136 163 156 160 163 154
157 153 158 170 176 180 177 177 179 179 175 167 165 167 168 168 169 169 167 159 154 147 139 137 139 138 131 132 145 150 149 148 154 143 134 162 126 138 155 151 155 158 141
163 163 166 176 180 180 173 173 178 176 172 166 165 171 178 176 174 169 164 161 156 148 139 135 139 143 142 147 157 155 151 149 150 160 146 134 149 171 164 140 141 134 126
165 168 172 179 178 177 181 175 175 176 173 169 174 183 184 175 168 166 167 162 157 155 148 140 135 137 149 164 166 171 163 160 165 147 132 136 144 167 172 156 152 142 140
164 166 174 181 183 181 183 179 177 178 172 174 181 179 175 172 173 174 170 161 157 156 149 153 153 155 164 151 146 145 141 151 155 151 152 106 70 111 169 159 152 154 158
163 168 179 187 192 189 184 184 181 172 171 175 177 176 175 177 181 179 171 169 171 165 164 166 159 164 179 156 149 149 140 145 154 153 155 139 53 70 122 142 141 163 170
152 179 185 187 193 191 182 174 163 160 163 172 176 178 176 179 177 174 178 179 172 174 179 181 177 172 187 167 159 153 139 142 149 156 163 156 173 129 135 129 113 129 215
183 191 185 177 169 168 166 150 158 159 162 177 188 184 179 177 176 180 184 180 174 182 185 179 174 175 192 177 169 151 132 132 135 153 155 159 166 178 148 130 126 96 327
160 157 138 128 140 159 151 143 159 167 180 188 190 180 176 176 180 182 180 179 175 180 175 176 179 178 187 191 172 155 140 149 168 178 184 178 171 166 156 150 150 172 244
134 134 136 140 160 163 151 152 163 188 196 184 171 169 180 181 180 176 175 171 169 166 169 172 184 182 186 189 185 173 158 173 180 191 219 235 188 174 174 171 182 206 205
92 122 123 136 154 148 145 158 185 199 174 159 162 169 178 178 172 169 171 169 167 167 174 174 184 199 194 186 193 187 183 181 177 196 212 221 205 200 196 199 210 197 152
59 67 105 115 357 161 154 172 203 182 164 155 165 168 168 163 161 166 172 172 173 174 180 177 183 194 188 200 200 196 198 190 188 201 198 206 211 216 228 225 213 182 156
58 67 100 153 238 230 181 181 177 160 157 160 166 166 163 162 156 161 167 172 177 180 182 183 188 191 190 193 203 205 198 193 196 215 226 220 221 231 251 246 225 202 193
265 194 187 206 223 217 202 178 166 156 163 166 166 165 164 158 151 148 155 173 189 194 185 190 186 184 206 219 198 186 191 190 193 164 122 98 140 249 261 258 258 237 211
270 252 239 214 212 195 206 202 166 156 159 164 169 168 167 154 151 141 91 44 90 169 180 184 179 197 203 184 181 185 190 189 173 153 171 204 216 224 230 232 240 234 224